KAI540 KHOU-TBPB

Flight info

Callsign KAI540
Flight time N/A
Altitude 35000
Route ELOCO6 LLA DCT LEV Y290 BACCA Q102 GAWKS/N0443F370 Q102 BAGGS Y290 SAXXN Y398 SKIPS Y290 HAGIT L452 HARBG Y421 MEEGL DCT ILURI UA555 DUNTA DCT EMOLA DCT FOF DCT BORUS DCT BGI DCT
Aircraft B737/M-SDE2E3FGHIRWXY/LB1

Departure

Time N/A
Airport William P. Hobby Airport (KHOU)

Arrival

Time 2026-05-03 23:18
Airport Grantley Adams International Airport (TBPB)
Time Latitude Longitude Altitude Speed Heading
2026-05-03 22:53 14.42819 -60.85617 35019 ft 479 kts 134°
2026-05-03 22:53 14.40451 -60.83196 35019 ft 479 kts 134°
2026-05-03 22:54 14.35704 -60.78338 34541 ft 486 kts 134°
2026-05-03 22:54 14.33312 -60.75890 34123 ft 484 kts 134°
2026-05-03 22:54 14.30952 -60.73477 33585 ft 481 kts 134°
2026-05-03 22:54 14.28579 -60.71053 33078 ft 479 kts 134°
2026-05-03 22:55 14.26215 -60.68638 32588 ft 478 kts 134°
2026-05-03 22:55 14.23855 -60.66228 32101 ft 478 kts 134°
2026-05-03 22:55 14.21492 -60.63816 31630 ft 481 kts 135°
2026-05-03 22:55 14.19106 -60.61381 31150 ft 483 kts 135°
2026-05-03 22:56 14.16716 -60.58943 30639 ft 486 kts 135°
2026-05-03 22:56 14.14299 -60.56478 30135 ft 489 kts 135°
2026-05-03 22:56 14.11889 -60.54022 29565 ft 486 kts 135°
2026-05-03 22:56 14.09477 -60.51565 29007 ft 488 kts 135°
2026-05-03 22:57 14.07049 -60.49092 28458 ft 491 kts 135°
2026-05-03 22:57 14.04620 -60.46612 27913 ft 492 kts 134°
2026-05-03 22:57 14.02265 -60.44064 27542 ft 487 kts 132°
2026-05-03 22:57 14.00018 -60.41507 27017 ft 487 kts 131°
2026-05-03 22:58 13.97777 -60.38897 26491 ft 486 kts 131°
2026-05-03 22:58 13.95537 -60.36278 25960 ft 486 kts 131°
2026-05-03 22:58 13.93307 -60.33680 25412 ft 485 kts 131°
2026-05-03 22:58 13.91064 -60.31084 24839 ft 485 kts 131°
2026-05-03 22:59 13.88827 -60.28511 24276 ft 479 kts 131°
2026-05-03 22:59 13.86620 -60.25980 23726 ft 471 kts 131°
2026-05-03 22:59 13.84442 -60.23489 23107 ft 463 kts 131°
2026-05-03 22:59 13.82307 -60.21049 22535 ft 456 kts 131°
2026-05-03 23:00 13.80196 -60.18638 21982 ft 450 kts 130°
2026-05-03 23:00 13.78139 -60.16289 21454 ft 445 kts 130°
2026-05-03 23:00 13.76076 -60.13931 20925 ft 441 kts 130°
2026-05-03 23:00 13.74034 -60.11598 20404 ft 438 kts 130°
2026-05-03 23:01 13.71998 -60.09273 19884 ft 435 kts 130°
2026-05-03 23:01 13.69975 -60.06962 19354 ft 434 kts 131°
2026-05-03 23:01 13.67961 -60.04663 18819 ft 432 kts 131°
2026-05-03 23:01 13.65950 -60.02367 18279 ft 431 kts 130°
2026-05-03 23:02 13.63955 -60.00091 17690 ft 426 kts 130°
2026-05-03 23:02 13.61979 -59.97837 17136 ft 421 kts 130°
2026-05-03 23:02 13.60035 -59.95621 16609 ft 415 kts 130°
2026-05-03 23:02 13.58113 -59.93430 16085 ft 409 kts 130°
2026-05-03 23:03 13.56223 -59.91275 15575 ft 404 kts 130°
2026-05-03 23:03 13.54349 -59.89141 15077 ft 400 kts 130°
2026-05-03 23:03 13.52492 -59.87025 14582 ft 396 kts 130°
2026-05-03 23:03 13.50658 -59.84936 14086 ft 393 kts 130°
2026-05-03 23:04 13.48831 -59.82855 13547 ft 390 kts 130°
2026-05-03 23:04 13.47020 -59.80794 13007 ft 387 kts 130°
2026-05-03 23:04 13.45219 -59.78744 12488 ft 384 kts 130°
2026-05-03 23:04 13.43438 -59.76718 11999 ft 380 kts 130°
2026-05-03 23:05 13.41673 -59.74711 11502 ft 377 kts 130°
2026-05-03 23:05 13.39921 -59.72717 11015 ft 374 kts 130°
2026-05-03 23:05 13.38181 -59.70741 10522 ft 372 kts 130°
2026-05-03 23:05 13.36456 -59.68780 10145 ft 366 kts 130°
2026-05-03 23:06 13.34776 -59.66872 9979 ft 356 kts 130°
2026-05-03 23:06 13.33111 -59.64979 9469 ft 355 kts 131°
2026-05-03 23:06 13.31286 -59.63419 8966 ft 341 kts 152°
2026-05-03 23:06 13.29040 -59.62901 8586 ft 328 kts 181°
2026-05-03 23:07 13.26953 -59.63592 8449 ft 312 kts 210°
2026-05-03 23:07 13.25511 -59.65219 8042 ft 311 kts 242°
2026-05-03 23:07 13.24587 -59.67107 8181 ft 283 kts 233°
2026-05-03 23:07 13.23326 -59.68545 8050 ft 261 kts 215°
2026-05-03 23:08 13.21892 -59.69543 7950 ft 239 kts 205°
2026-05-03 23:08 13.20475 -59.70315 7824 ft 222 kts 202°
2026-05-03 23:08 13.19145 -59.71015 7713 ft 207 kts 202°
2026-05-03 23:08 13.17894 -59.71629 7602 ft 191 kts 199°
2026-05-03 23:09 13.16703 -59.72145 7359 ft 184 kts 197°
2026-05-03 23:09 13.15501 -59.72594 6996 ft 183 kts 193°
2026-05-03 23:09 13.14298 -59.72977 6647 ft 180 kts 190°
2026-05-03 23:09 13.13110 -59.73289 6385 ft 171 kts 188°
2026-05-03 23:10 13.11959 -59.73532 6057 ft 168 kts 184°
2026-05-03 23:10 13.10826 -59.73713 5700 ft 167 kts 182°
2026-05-03 23:10 13.09674 -59.73843 5337 ft 165 kts 179°
2026-05-03 23:10 13.08525 -59.73920 4981 ft 165 kts 176°
2026-05-03 23:11 13.07381 -59.73960 4629 ft 164 kts 176°
2026-05-03 23:11 13.06229 -59.73950 4297 ft 170 kts 173°
2026-05-03 23:11 13.05061 -59.73873 4185 ft 169 kts 168°
2026-05-03 23:11 13.03938 -59.73621 3867 ft 162 kts 145°
2026-05-03 23:12 13.03072 -59.72920 3585 ft 156 kts 126°
2026-05-03 23:12 13.02530 -59.71991 3486 ft 152 kts 107°
2026-05-03 23:12 13.02332 -59.70934 3357 ft 151 kts 82°
2026-05-03 23:12 13.02514 -59.69882 3284 ft 150 kts 78°
2026-05-03 23:13 13.02717 -59.68845 3154 ft 143 kts 77°
2026-05-03 23:13 13.02926 -59.67904 3048 ft 132 kts 76°
2026-05-03 23:13 13.03138 -59.66997 2917 ft 133 kts 76°
2026-05-03 23:13 13.03359 -59.66071 2800 ft 134 kts 76°
2026-05-03 23:14 13.03578 -59.65162 2673 ft 130 kts 76°
2026-05-03 23:14 13.03795 -59.64266 2552 ft 130 kts 76°
2026-05-03 23:14 13.04014 -59.63365 2508 ft 129 kts 76°
2026-05-03 23:14 13.04236 -59.62452 2376 ft 132 kts 76°
2026-05-03 23:15 13.04457 -59.61545 2206 ft 131 kts 76°
2026-05-03 23:15 13.04676 -59.60646 2033 ft 129 kts 76°
2026-05-03 23:15 13.04894 -59.59751 1878 ft 131 kts 76°
2026-05-03 23:15 13.05112 -59.58855 1715 ft 127 kts 77°
2026-05-03 23:16 13.05340 -59.57964 1490 ft 131 kts 76°
2026-05-03 23:16 13.05546 -59.57088 1396 ft 126 kts 77°
2026-05-03 23:16 13.05744 -59.56201 1185 ft 130 kts 76°
2026-05-03 23:16 13.05971 -59.55304 1028 ft 129 kts 75°
2026-05-03 23:17 13.06175 -59.54410 859 ft 128 kts 78°
2026-05-03 23:17 13.06398 -59.53544 698 ft 126 kts 76°
2026-05-03 23:17 13.06616 -59.52672 533 ft 122 kts 77°
2026-05-03 23:17 13.06824 -59.51842 390 ft 121 kts 79°
2026-05-03 23:18 13.07026 -59.50995 293 ft 122 kts 77°
2026-05-03 23:18 13.07232 -59.50161 191 ft 113 kts 79°
2026-05-03 23:18 13.07390 -59.49512 175 ft 66 kts 75°
2026-05-03 23:18 13.07457 -59.49240 174 ft 28 kts 76°
2026-05-03 23:19 13.07500 -59.49065 173 ft 14 kts 73°
2026-05-03 23:19 13.07546 -59.48986 173 ft 10 kts 41°
2026-05-03 23:19 13.07591 -59.48983 174 ft 5 kts 347°
2026-05-03 23:19 13.07625 -59.48991 175 ft 5 kts 347°
2026-05-03 23:20 13.07657 -59.49001 175 ft 5 kts 341°
2026-05-03 23:20 13.07677 -59.49024 175 ft 4 kts 287°
2026-05-03 23:20 13.07670 -59.49053 175 ft 4 kts 249°
2026-05-03 23:20 13.07662 -59.49083 175 ft 4 kts 256°
2026-05-03 23:21 13.07655 -59.49111 175 ft 4 kts 257°
2026-05-03 23:21 13.07649 -59.49140 175 ft 4 kts 257°
2026-05-03 23:21 13.07642 -59.49167 175 ft 4 kts 256°
2026-05-03 23:21 13.07636 -59.49193 175 ft 4 kts 256°
2026-05-03 23:22 13.07623 -59.49245 175 ft 4 kts 256°
2026-05-03 23:22 13.07613 -59.49282 175 ft 7 kts 256°
2026-05-03 23:22 13.07610 -59.49296 175 ft 2 kts 256°
2026-05-03 23:23 13.07630 -59.49215 175 ft 12 kts 256°
2026-05-03 23:23 13.07636 -59.49187 175 ft 4 kts 256°
2026-05-03 23:23 13.07629 -59.49227 175 ft 6 kts 270°
2026-05-03 23:23 13.07656 -59.49251 175 ft 4 kts 345°
2026-05-03 23:24 13.07677 -59.49256 175 ft 1 kts 346°
2026-05-03 23:24 13.07681 -59.49257 175 ft 0 kts 345°